• In Romania
  • List of Countries
  • For 7 days
  • Water Temperature
  • Satellite Maps
  • Weather Map
  • Weather Widgets
  • user-avatar
    Login

    Hourly Weather Novokrivovka

    Today, 20 August, Monday

    Time Temperature Precipitation Wind Pressure Humidity
    00:00 +16°C° 0 mm 1 mps 758 mmHg 63%
    01:00 +15°C° 0 mm 1 mps 758 mmHg 64%
    02:00 +15°C° 0 mm 1 mps 758 mmHg 66%
    03:00 +15°C° 0 mm 1 mps 758 mmHg 67%
    04:00 +15°C° 0 mm 1 mps 758 mmHg 68%
    05:00 +15°C° 0 mm 1 mps 758 mmHg 68%
    06:00 +15°C° 0 mm 1 mps 758 mmHg 68%
    07:00 +18°C° 0 mm 1 mps 758 mmHg 62%
    08:00 +20°C° 0 mm 1 mps 759 mmHg 56%
    09:00 +22°C° 0 mm 1 mps 759 mmHg 50%
    10:00 +23°C° 0 mm 1 mps 758 mmHg 47%
    11:00 +24°C° 0 mm 2 mps 758 mmHg 44%
    12:00 +25°C° 0 mm 2 mps 758 mmHg 40%
    13:00 +26°C° 0 mm 2 mps 758 mmHg 38%
    14:00 +26°C° 0 mm 2 mps 757 mmHg 36%
    15:00 +27°C° 0 mm 2 mps 757 mmHg 34%
    16:00 +27°C° 0 mm 2 mps 757 mmHg 36%
    17:00 +26°C° 0 mm 1 mps 757 mmHg 38%
    18:00 +26°C° 0 mm 1 mps 756 mmHg 40%
    19:00 +25°C° 0 mm 1 mps 756 mmHg 42%
    20:00 +23°C° 0 mm 1 mps 756 mmHg 44%
    21:00 +22°C° 0 mm 1 mps 757 mmHg 46%
    22:00 +22°C° 0 mm 1 mps 757 mmHg 47%
    23:00 +21°C° 0 mm 1 mps 756 mmHg 48%

    Tomorrow, 21 August, Tuesday

    Time Temperature Precipitation Wind Pressure Humidity
    00:00 +21°C° 0 mm 1 mps 756 mmHg 49%
    01:00 +19°C° 0 mm 2 mps 756 mmHg 51%
    02:00 +19°C° 0 mm 2 mps 756 mmHg 52%
    03:00 +19°C° 0 mm 2 mps 756 mmHg 53%
    04:00 +19°C° 0 mm 2 mps 756 mmHg 55%
    05:00 +19°C° 0 mm 2 mps 756 mmHg 56%
    06:00 +19°C° 0 mm 2 mps 756 mmHg 57%
    07:00 +21°C° 0 mm 2 mps 756 mmHg 51%
    08:00 +24°C° 0 mm 2 mps 756 mmHg 46%
    09:00 +26°C° 0 mm 3 mps 756 mmHg 40%
    10:00 +27°C° 0 mm 3 mps 756 mmHg 37%
    11:00 +28°C° 0 mm 4 mps 756 mmHg 34%
    12:00 +30°C° 0 mm 4 mps 756 mmHg 31%
    13:00 +30°C° 0 mm 4 mps 755 mmHg 30%
    14:00 +30°C° 0 mm 4 mps 755 mmHg 29%
    15:00 +30°C° 0 mm 5 mps 754 mmHg 28%
    16:00 +30°C° 0 mm 4 mps 754 mmHg 31%
    17:00 +29°C° 0 mm 3 mps 754 mmHg 33%
    18:00 +28°C° 0 mm 3 mps 753 mmHg 36%
    19:00 +27°C° 0 mm 3 mps 753 mmHg 38%
    20:00 +25°C° 0 mm 3 mps 754 mmHg 40%
    21:00 +24°C° 0 mm 2 mps 754 mmHg 41%
    22:00 +22°C° 0 mm 3 mps 753 mmHg 42%
    23:00 +22°C° 0 mm 3 mps 753 mmHg 43%

    Day after tomorrow, 22 August, Wednesday

    Time Temperature Precipitation Wind Pressure Humidity
    00:00 +21°C° 0 mm 3 mps 753 mmHg 44%
    01:00 +21°C° 0 mm 3 mps 753 mmHg 44%
    02:00 +21°C° 0 mm 3 mps 753 mmHg 44%
    03:00 +20°C° 0 mm 3 mps 752 mmHg 43%
    04:00 +20°C° 0 mm 4 mps 752 mmHg 43%
    05:00 +20°C° 0 mm 4 mps 752 mmHg 43%
    06:00 +20°C° 0 mm 4 mps 752 mmHg 43%
    07:00 +22°C° 0 mm 5 mps 752 mmHg 38%
    08:00 +25°C° 0 mm 5 mps 752 mmHg 34%
    09:00 +27°C° 0 mm 6 mps 752 mmHg 30%
    10:00 +28°C° 0 mm 6 mps 752 mmHg 33%
    11:00 +28°C° 0 mm 6 mps 752 mmHg 36%
    12:00 +28°C° 0 mm 7 mps 752 mmHg 40%
    13:00 +26°C° 0.2 mm 6 mps 752 mmHg 51%
    14:00 +23°C° 0.2 mm 5 mps 752 mmHg 62%
    15:00 +21°C° 0.2 mm 5 mps 752 mmHg 74%
    16:00 +21°C° 0 mm 4 mps 752 mmHg 67%
    17:00 +22°C° 0 mm 4 mps 753 mmHg 61%
    18:00 +22°C° 0 mm 4 mps 753 mmHg 54%
    19:00 +21°C° 0 mm 4 mps 754 mmHg 57%
    20:00 +19°C° 0 mm 4 mps 754 mmHg 59%
    21:00 +18°C° 0 mm 4 mps 755 mmHg 62%
    22:00 +17°C° 0 mm 4 mps 755 mmHg 63%
    23:00 +17°C° 0 mm 3 mps 755 mmHg 65%

    23 August, Thursday

    Time Temperature Precipitation Wind Pressure Humidity
    00:00 +16°C° 0 mm 3 mps 756 mmHg 67%
    01:00 +14°C° 0 mm 3 mps 756 mmHg 68%
    02:00 +14°C° 0 mm 3 mps 756 mmHg 68%
    03:00 +13°C° 0 mm 3 mps 757 mmHg 69%
    04:00 +13°C° 0 mm 3 mps 757 mmHg 69%
    05:00 +13°C° 0 mm 3 mps 757 mmHg 69%
    06:00 +13°C° 0 mm 3 mps 758 mmHg 69%
    07:00 +16°C° 0 mm 3 mps 758 mmHg 61%
    08:00 +18°C° 0 mm 4 mps 758 mmHg 52%
    09:00 +19°C° 0 mm 5 mps 759 mmHg 43%
    10:00 +20°C° 0 mm 5 mps 759 mmHg 39%
    11:00 +21°C° 0 mm 5 mps 759 mmHg 36%
    12:00 +22°C° 0 mm 5 mps 759 mmHg 33%
    13:00 +22°C° 0 mm 4 mps 759 mmHg 32%
    14:00 +22°C° 0 mm 4 mps 759 mmHg 32%
    15:00 +23°C° 0 mm 4 mps 759 mmHg 31%
    16:00 +22°C° 0 mm 4 mps 759 mmHg 34%
    17:00 +22°C° 0 mm 3 mps 759 mmHg 37%
    18:00 +21°C° 0 mm 3 mps 759 mmHg 40%
    19:00 +19°C° 0 mm 3 mps 759 mmHg 44%
    20:00 +18°C° 0 mm 2 mps 759 mmHg 48%
    21:00 +17°C° 0 mm 2 mps 760 mmHg 53%
    22:00 +16°C° 0 mm 2 mps 760 mmHg 55%
    23:00 +15°C° 0 mm 2 mps 760 mmHg 58%

    24 August, Friday

    Time Temperature Precipitation Wind Pressure Humidity
    00:00 +15°C° 0 mm 2 mps 760 mmHg 60%
    01:00 +14°C° 0 mm 2 mps 760 mmHg 62%
    02:00 +14°C° 0 mm 1 mps 760 mmHg 64%
    03:00 +14°C° 0 mm 1 mps 760 mmHg 65%
    04:00 +14°C° 0 mm 1 mps 760 mmHg 66%
    05:00 +14°C° 0 mm 1 mps 760 mmHg 66%
    06:00 +14°C° 0 mm 1 mps 760 mmHg 66%
    07:00 +16°C° 0 mm 1 mps 760 mmHg 60%
    08:00 +18°C° 0 mm 1 mps 760 mmHg 53%
    09:00 +19°C° 0 mm 2 mps 760 mmHg 46%
    10:00 +20°C° 0 mm 2 mps 760 mmHg 41%
    11:00 +23°C° 0 mm 2 mps 760 mmHg 37%
    12:00 +24°C° 0 mm 2 mps 760 mmHg 32%
    13:00 +24°C° 0 mm 2 mps 759 mmHg 31%
    14:00 +25°C° 0 mm 2 mps 759 mmHg 29%
    15:00 +25°C° 0 mm 3 mps 759 mmHg 27%
    16:00 +25°C° 0 mm 2 mps 759 mmHg 30%
    17:00 +24°C° 0 mm 2 mps 759 mmHg 32%
    18:00 +24°C° 0 mm 2 mps 758 mmHg 35%
    19:00 +21°C° 0 mm 2 mps 759 mmHg 38%
    20:00 +20°C° 0 mm 2 mps 759 mmHg 41%
    21:00 +18°C° 0 mm 2 mps 759 mmHg 44%
    22:00 +18°C° 0 mm 2 mps 759 mmHg 47%
    23:00 +17°C° 0 mm 2 mps 759 mmHg 51%

    25 August, Saturday

    Time Temperature Precipitation Wind Pressure Humidity
    00:00 +17°C° 0 mm 2 mps 759 mmHg 54%
    01:00 +16°C° 0 mm 2 mps 759 mmHg 56%
    02:00 +16°C° 0 mm 2 mps 759 mmHg 59%
    03:00 +16°C° 0 mm 2 mps 759 mmHg 62%
    04:00 +16°C° 0 mm 2 mps 759 mmHg 64%
    05:00 +16°C° 0 mm 2 mps 759 mmHg 65%
    06:00 +16°C° 0 mm 2 mps 759 mmHg 67%
    07:00 +18°C° 0 mm 2 mps 759 mmHg 61%
    08:00 +20°C° 0 mm 2 mps 759 mmHg 55%
    09:00 +23°C° 0 mm 2 mps 759 mmHg 49%
    10:00 +24°C° 0 mm 2 mps 759 mmHg 45%
    11:00 +25°C° 0 mm 2 mps 758 mmHg 41%
    12:00 +26°C° 0 mm 2 mps 758 mmHg 36%
    13:00 +27°C° 0 mm 2 mps 758 mmHg 35%
    14:00 +27°C° 0 mm 2 mps 758 mmHg 34%
    15:00 +28°C° 0 mm 2 mps 757 mmHg 32%
    16:00 +27°C° 0 mm 2 mps 757 mmHg 35%
    17:00 +27°C° 0 mm 2 mps 757 mmHg 38%
    18:00 +26°C° 0 mm 2 mps 757 mmHg 41%
    19:00 +25°C° 0 mm 2 mps 757 mmHg 44%
    20:00 +23°C° 0 mm 2 mps 757 mmHg 48%
    21:00 +21°C° 0 mm 2 mps 757 mmHg 52%
    22:00 +20°C° 0 mm 2 mps 757 mmHg 55%
    23:00 +20°C° 0 mm 2 mps 757 mmHg 57%
    Show more